• In Österreich
  • Länderverzeichnis
  • Für 7 Tage
  • Wassertemperatur
  • Satellitenkarten
  • Wetterkarte
  • News
  • Widgets
  • user-avatar
    Anmelden

    Stündliche Wetter Kronin

    Heute, 22 Mai, Dienstag

    Zeit Temperatur Niederschläge Wind Luftdruck Luftfeuchtigkeit
    00:00 +10°C° 0,1 mm 3 m/S 755 mmHg 86%
    01:00 +9°C° 0,1 mm 3 m/S 755 mmHg 89%
    02:00 +9°C° 0,3 mm 3 m/S 755 mmHg 91%
    03:00 +8°C° 0,3 mm 3 m/S 754 mmHg 93%
    04:00 +8°C° 0,3 mm 2 m/S 754 mmHg 95%
    05:00 +9°C° 0,1 mm 3 m/S 754 mmHg 91%
    06:00 +11°C° 0,1 mm 3 m/S 754 mmHg 88%
    07:00 +12°C° 0,1 mm 3 m/S 754 mmHg 84%
    08:00 +14°C° 0,6 mm 3 m/S 754 mmHg 77%
    09:00 +16°C° 0,6 mm 3 m/S 754 mmHg 71%
    10:00 +18°C° 0,6 mm 3 m/S 753 mmHg 64%
    11:00 +18°C° 0,5 mm 3 m/S 753 mmHg 62%
    12:00 +19°C° 0,5 mm 3 m/S 753 mmHg 60%
    13:00 +19°C° 0,5 mm 3 m/S 752 mmHg 58%
    14:00 +19°C° 0,4 mm 2 m/S 752 mmHg 59%
    15:00 +19°C° 0,4 mm 2 m/S 752 mmHg 59%
    16:00 +20°C° 0,4 mm 1 m/S 752 mmHg 60%
    17:00 +19°C° 0,3 mm 1 m/S 752 mmHg 66%
    18:00 +18°C° 0,3 mm 1 m/S 752 mmHg 72%
    19:00 +15°C° 0,3 mm 1 m/S 752 mmHg 78%
    20:00 +14°C° 0 mm 1 m/S 752 mmHg 81%
    21:00 +13°C° 0 mm 1 m/S 752 mmHg 83%
    22:00 +12°C° 0 mm 1 m/S 753 mmHg 86%
    23:00 +11°C° 0 mm 1 m/S 753 mmHg 87%

    Morgen, 23 Mai, Mittwoch

    Zeit Temperatur Niederschläge Wind Luftdruck Luftfeuchtigkeit
    00:00 +11°C° 0 mm 1 m/S 753 mmHg 87%
    01:00 +11°C° 0 mm 1 m/S 753 mmHg 88%
    02:00 +10°C° 0 mm 1 m/S 753 mmHg 89%
    03:00 +10°C° 0 mm 1 m/S 754 mmHg 89%
    04:00 +10°C° 0 mm 1 m/S 754 mmHg 90%
    05:00 +12°C° 0 mm 2 m/S 754 mmHg 86%
    06:00 +14°C° 0 mm 2 m/S 755 mmHg 83%
    07:00 +16°C° 0 mm 2 m/S 755 mmHg 79%
    08:00 +17°C° 0 mm 2 m/S 756 mmHg 73%
    09:00 +18°C° 0 mm 3 m/S 756 mmHg 67%
    10:00 +19°C° 0 mm 3 m/S 756 mmHg 62%
    11:00 +20°C° 0 mm 3 m/S 756 mmHg 61%
    12:00 +20°C° 0 mm 3 m/S 757 mmHg 60%
    13:00 +21°C° 0 mm 3 m/S 757 mmHg 59%
    14:00 +20°C° 0 mm 4 m/S 757 mmHg 61%
    15:00 +20°C° 0 mm 4 m/S 757 mmHg 63%
    16:00 +20°C° 0 mm 5 m/S 757 mmHg 65%
    17:00 +18°C° 0 mm 4 m/S 757 mmHg 71%
    18:00 +17°C° 0 mm 4 m/S 757 mmHg 77%
    19:00 +14°C° 0 mm 4 m/S 757 mmHg 83%
    20:00 +13°C° 0 mm 3 m/S 757 mmHg 85%
    21:00 +12°C° 0 mm 3 m/S 758 mmHg 88%
    22:00 +10°C° 0 mm 3 m/S 758 mmHg 90%
    23:00 +10°C° 0 mm 3 m/S 758 mmHg 91%

    übermorgen, 24 Mai, Donnerstag

    Zeit Temperatur Niederschläge Wind Luftdruck Luftfeuchtigkeit
    00:00 +10°C° 0 mm 2 m/S 758 mmHg 92%
    01:00 +9°C° 0 mm 2 m/S 759 mmHg 92%
    02:00 +9°C° 0 mm 2 m/S 759 mmHg 93%
    03:00 +9°C° 0 mm 2 m/S 759 mmHg 94%
    04:00 +10°C° 0 mm 2 m/S 759 mmHg 94%
    05:00 +11°C° 0 mm 3 m/S 759 mmHg 88%
    06:00 +13°C° 0 mm 3 m/S 759 mmHg 82%
    07:00 +16°C° 0 mm 3 m/S 760 mmHg 77%
    08:00 +18°C° 0 mm 3 m/S 760 mmHg 71%
    09:00 +19°C° 0 mm 4 m/S 760 mmHg 66%
    10:00 +20°C° 0 mm 4 m/S 760 mmHg 61%
    11:00 +21°C° 0 mm 4 m/S 760 mmHg 60%
    12:00 +21°C° 0 mm 4 m/S 759 mmHg 58%
    13:00 +22°C° 0 mm 5 m/S 759 mmHg 57%
    14:00 +21°C° 0 mm 5 m/S 759 mmHg 59%
    15:00 +21°C° 0 mm 5 m/S 759 mmHg 61%
    16:00 +21°C° 0 mm 5 m/S 758 mmHg 63%
    17:00 +19°C° 0 mm 4 m/S 758 mmHg 69%
    18:00 +18°C° 0 mm 4 m/S 758 mmHg 75%
    19:00 +15°C° 0 mm 4 m/S 758 mmHg 81%
    20:00 +14°C° 0 mm 3 m/S 759 mmHg 83%
    21:00 +13°C° 0 mm 3 m/S 759 mmHg 84%
    22:00 +12°C° 0 mm 3 m/S 759 mmHg 86%
    23:00 +12°C° 0 mm 3 m/S 759 mmHg 88%

    25 Mai, Freitag

    Zeit Temperatur Niederschläge Wind Luftdruck Luftfeuchtigkeit
    00:00 +12°C° 0 mm 3 m/S 759 mmHg 89%
    01:00 +12°C° 0 mm 2 m/S 759 mmHg 90%
    02:00 +11°C° 0 mm 3 m/S 759 mmHg 91%
    03:00 +11°C° 0 mm 3 m/S 759 mmHg 92%
    04:00 +11°C° 0 mm 3 m/S 759 mmHg 93%
    05:00 +13°C° 0 mm 3 m/S 759 mmHg 87%
    06:00 +16°C° 0 mm 3 m/S 759 mmHg 82%
    07:00 +18°C° 0 mm 3 m/S 759 mmHg 76%
    08:00 +20°C° 0 mm 4 m/S 759 mmHg 70%
    09:00 +21°C° 0 mm 4 m/S 759 mmHg 64%
    10:00 +23°C° 0 mm 5 m/S 759 mmHg 59%
    11:00 +23°C° 0,1 mm 5 m/S 759 mmHg 58%
    12:00 +25°C° 0,1 mm 5 m/S 759 mmHg 57%
    13:00 +25°C° 0,1 mm 5 m/S 759 mmHg 57%
    14:00 +25°C° 0,2 mm 5 m/S 759 mmHg 59%
    15:00 +23°C° 0,2 mm 5 m/S 759 mmHg 62%
    16:00 +23°C° 0,2 mm 4 m/S 758 mmHg 65%
    17:00 +22°C° 0,1 mm 4 m/S 758 mmHg 70%
    18:00 +20°C° 0,1 mm 4 m/S 758 mmHg 74%
    19:00 +19°C° 0,1 mm 4 m/S 758 mmHg 79%
    20:00 +18°C° 0,1 mm 4 m/S 758 mmHg 82%
    21:00 +17°C° 0,1 mm 3 m/S 759 mmHg 86%
    22:00 +16°C° 0,1 mm 3 m/S 759 mmHg 89%
    23:00 +14°C° 0 mm 3 m/S 759 mmHg 90%

    26 Mai, Samstag

    Zeit Temperatur Niederschläge Wind Luftdruck Luftfeuchtigkeit
    00:00 +14°C° 0 mm 3 m/S 759 mmHg 91%
    01:00 +13°C° 0 mm 3 m/S 759 mmHg 91%
    02:00 +13°C° 0 mm 3 m/S 759 mmHg 92%
    03:00 +13°C° 0 mm 3 m/S 759 mmHg 93%
    04:00 +12°C° 0 mm 3 m/S 759 mmHg 94%
    05:00 +14°C° 0 mm 3 m/S 759 mmHg 91%
    06:00 +17°C° 0 mm 3 m/S 759 mmHg 87%
    07:00 +18°C° 0 mm 3 m/S 759 mmHg 84%
    08:00 +19°C° 0,4 mm 3 m/S 759 mmHg 80%
    09:00 +21°C° 0,4 mm 3 m/S 759 mmHg 76%
    10:00 +22°C° 0,4 mm 3 m/S 759 mmHg 72%
    11:00 +22°C° 0,6 mm 3 m/S 759 mmHg 71%
    12:00 +22°C° 0,6 mm 3 m/S 759 mmHg 70%
    13:00 +24°C° 0,6 mm 3 m/S 759 mmHg 69%
    14:00 +24°C° 0,7 mm 3 m/S 759 mmHg 70%
    15:00 +24°C° 0,7 mm 3 m/S 758 mmHg 71%
    16:00 +22°C° 0,7 mm 3 m/S 758 mmHg 72%
    17:00 +21°C° 0,9 mm 3 m/S 758 mmHg 77%
    18:00 +20°C° 0,9 mm 2 m/S 758 mmHg 82%
    19:00 +19°C° 0,9 mm 2 m/S 758 mmHg 87%
    20:00 +18°C° 0 mm 2 m/S 758 mmHg 89%
    21:00 +17°C° 0 mm 2 m/S 758 mmHg 91%
    22:00 +16°C° 0 mm 2 m/S 759 mmHg 93%
    23:00 +16°C° 0 mm 2 m/S 758 mmHg 93%

    27 Mai, Sonntag

    Zeit Temperatur Niederschläge Wind Luftdruck Luftfeuchtigkeit
    00:00 +16°C° 0 mm 2 m/S 758 mmHg 93%
    01:00 +15°C° 0 mm 2 m/S 758 mmHg 94%
    02:00 +15°C° 0 mm 2 m/S 758 mmHg 94%
    03:00 +15°C° 0 mm 1 m/S 758 mmHg 94%
    04:00 +15°C° 0 mm 1 m/S 758 mmHg 95%
    05:00 +16°C° 0 mm 2 m/S 758 mmHg 92%
    06:00 +17°C° 0 mm 2 m/S 758 mmHg 90%
    07:00 +19°C° 0 mm 3 m/S 759 mmHg 87%
    08:00 +20°C° 0,6 mm 3 m/S 759 mmHg 83%
    09:00 +21°C° 0,6 mm 4 m/S 759 mmHg 78%
    10:00 +22°C° 0,6 mm 4 m/S 759 mmHg 74%
    11:00 +23°C° 0,7 mm 4 m/S 758 mmHg 73%
    12:00 +23°C° 0,7 mm 4 m/S 758 mmHg 71%
    13:00 +23°C° 0,7 mm 4 m/S 758 mmHg 70%
    14:00 +23°C° 0,2 mm 4 m/S 758 mmHg 70%
    15:00 +23°C° 0,2 mm 5 m/S 758 mmHg 70%
    16:00 +23°C° 0,2 mm 5 m/S 757 mmHg 70%
    17:00 +21°C° 0,1 mm 5 m/S 757 mmHg 75%
    18:00 +20°C° 0,1 mm 5 m/S 757 mmHg 80%
    19:00 +19°C° 0,1 mm 4 m/S 757 mmHg 85%
    20:00 +18°C° 0,5 mm 4 m/S 757 mmHg 89%
    21:00 +17°C° 0,5 mm 4 m/S 757 mmHg 92%
    22:00 +15°C° 0,5 mm 4 m/S 757 mmHg 95%
    23:00 +15°C° 1,2 mm 4 m/S 757 mmHg 96%
    Mehr zeigen